| time (UTC) | temp F | wind direction | speed MPH | gust MPH | rain 1hr in | rain 24hr in | rain mn in | humidity % | barometer mb |
| 20260506043024 | 70 | 334 | 8.0 | 14.0 | 0.00 | 0.00 | 0.00 | 73 | 1008.9 |
| 20260506041504 | 71 | 325 | 5.0 | 12.0 | 0.00 | 0.00 | 0.00 | 72 | 1008.7 |
| 20260506040010 | 71 | 24 | 7.0 | 14.0 | 0.00 | 0.00 | 0.00 | 72 | 1008.5 |
| 20260506034532 | 72 | 351 | 3.0 | 10.0 | 0.00 | 0.00 | 0.00 | 71 | 1008.1 |
| 20260506033020 | 72 | 323 | 5.0 | 12.0 | 0.00 | 0.00 | 0.00 | 71 | 1007.8 |
| 20260506031526 | 73 | 321 | 5.0 | 14.0 | 0.00 | 0.00 | 0.00 | 70 | 1008.0 |
| 20260506030008 | 75 | 325 | 6.0 | 10.0 | 0.00 | 0.00 | 0.00 | 70 | 1007.7 |
| 20260506024509 | 76 | 296 | 4.0 | 9.0 | 0.00 | 0.00 | 0.00 | 73 | 1007.2 |
| 20260506023016 | 77 | 256 | 0.0 | 2.0 | 0.00 | 0.00 | 0.00 | 77 | 1006.5 |
| 20260506021520 | 77 | 256 | 0.0 | 0.0 | 0.00 | 0.00 | 0.00 | 77 | 1005.9 |
| 20260506020024 | 78 | 256 | 0.0 | 3.0 | 0.00 | 0.00 | 0.00 | 77 | 1006.0 |
| 20260506014507 | 78 | 190 | 0.0 | 1.0 | 0.00 | 0.00 | 0.00 | 76 | 1005.7 |
| 20260506013014 | 79 | 179 | 1.0 | 7.0 | 0.00 | 0.00 | 0.00 | 75 | 1005.4 |
| 20260506011518 | 79 | 192 | 7.0 | 12.0 | 0.00 | 0.00 | 0.00 | 76 | 1005.1 |
| 20260506010024 | 79 | 184 | 5.0 | 13.0 | 0.00 | 0.00 | 0.00 | 75 | 1004.9 |
| 20260506004534 | 79 | 158 | 6.0 | 16.0 | 0.00 | 0.00 | 0.00 | 74 | 1005.0 |
| 20260506003010 | 80 | 182 | 5.0 | 16.0 | 0.00 | 0.00 | 0.00 | 75 | 1004.9 |
| 20260506001513 | 80 | 183 | 5.0 | 11.0 | 0.00 | 0.00 | 0.00 | 75 | 1004.8 |
| 20260506000022 | 81 | 157 | 5.0 | 12.0 | 0.00 | 0.00 | 0.00 | 74 | 1004.7 |
| 20260505234533 | 81 | 157 | 6.0 | 14.0 | 0.00 | 0.00 | 0.00 | 74 | 1004.9 |
| 20260505233027 | 81 | 175 | 5.0 | 13.0 | 0.00 | 0.00 | 0.00 | 74 | 1004.8 |
| 20260505231515 | 83 | 225 | 6.0 | 15.0 | 0.00 | 0.00 | 0.00 | 72 | 1004.5 |
| 20260505230013 | 83 | 181 | 9.0 | 15.0 | 0.00 | 0.00 | 0.00 | 71 | 1004.6 |
| 20260505224520 | 83 | 184 | 8.0 | 15.0 | 0.00 | 0.00 | 0.00 | 71 | 1004.3 |
| 20260505223004 | 84 | 182 | 9.0 | 17.0 | 0.00 | 0.00 | 0.00 | 71 | 1004.2 |
| 20260505221507 | 85 | 180 | 9.0 | 15.0 | 0.00 | 0.00 | 0.00 | 69 | 1004.0 |
| 20260505220022 | 85 | 205 | 6.0 | 15.0 | 0.00 | 0.00 | 0.00 | 69 | 1004.3 |
| 20260505214522 | 86 | 150 | 6.0 | 14.0 | 0.00 | 0.00 | 0.00 | 69 | 1004.1 |
| 20260505213021 | 86 | 202 | 7.0 | 14.0 | 0.00 | 0.00 | 0.00 | 68 | 1004.3 |
| 20260505211524 | 86 | 200 | 8.0 | 14.0 | 0.00 | 0.00 | 0.00 | 67 | 1004.5 |
| 20260505210008 | 86 | 196 | 7.0 | 17.0 | 0.00 | 0.00 | 0.00 | 68 | 1004.4 |
| 20260505204514 | 86 | 179 | 8.0 | 17.0 | 0.00 | 0.00 | 0.00 | 67 | 1004.9 |
| 20260505203021 | 86 | 184 | 7.0 | 14.0 | 0.00 | 0.00 | 0.00 | 69 | 1005.0 |
| 20260505201525 | 85 | 168 | 7.0 | 17.0 | 0.00 | 0.00 | 0.00 | 69 | 1005.1 |
| 20260505200027 | 85 | 193 | 9.0 | 17.0 | 0.00 | 0.00 | 0.00 | 67 | 1005.1 |
| 20260505194528 | 84 | 197 | 8.0 | 17.0 | 0.00 | 0.00 | 0.00 | 68 | 1005.3 |
| 20260505193033 | 83 | 195 | 10.0 | 18.0 | 0.00 | 0.00 | 0.00 | 69 | 1005.3 |
| 20260505191520 | 83 | 205 | 9.0 | 19.0 | 0.00 | 0.00 | 0.00 | 69 | 1005.4 |
| 20260505190007 | 83 | 212 | 8.0 | 18.0 | 0.00 | 0.00 | 0.00 | 69 | 1005.5 |
| 20260505184508 | 82 | 150 | 9.0 | 18.0 | 0.00 | 0.00 | 0.00 | 69 | 1005.7 |
| 20260505183014 | 82 | 175 | 10.0 | 18.0 | 0.00 | 0.00 | 0.00 | 70 | 1005.9 |
| 20260505181518 | 81 | 223 | 8.0 | 15.0 | 0.00 | 0.00 | 0.00 | 70 | 1006.0 |
| 20260505180037 | 80 | 211 | 8.0 | 15.0 | 0.00 | 0.00 | 0.00 | 70 | 1006.0 |
| 20260505174515 | 79 | 178 | 10.0 | 23.0 | 0.00 | 0.00 | 0.00 | 71 | 1005.9 |
| 20260505173012 | 80 | 200 | 12.0 | 22.0 | 0.00 | 0.00 | 0.00 | 70 | 1005.8 |
| 20260505171516 | 79 | 178 | 9.0 | 18.0 | 0.00 | 0.00 | 0.00 | 71 | 1005.9 |
| 20260505170026 | 78 | 209 | 14.0 | 24.0 | 0.00 | 0.00 | 0.00 | 71 | 1005.9 |
| 20260505164523 | 77 | 214 | 13.0 | 27.0 | 0.00 | 0.00 | 0.00 | 71 | 1005.7 |
| 20260505163008 | 77 | 213 | 9.0 | 25.0 | 0.00 | 0.00 | 0.00 | 71 | 1005.8 |
| 20260505161512 | 77 | 191 | 11.0 | 24.0 | 0.00 | 0.00 | 0.00 | 71 | 1006.0 |
| 20260505153034 | 75 | 191 | 12.0 | 20.0 | 0.00 | 0.00 | 0.00 | 72 | 1005.9 |
| 20260505151508 | 75 | 177 | 12.0 | 23.0 | 0.00 | 0.00 | 0.00 | 72 | 1006.0 |
| 20260505124511 | 70 | 180 | 10.0 | 20.0 | 0.00 | 0.00 | 0.00 | 78 | 1005.0 |
| 20260505123011 | 70 | 175 | 10.0 | 18.0 | 0.00 | 0.00 | 0.00 | 78 | 1004.9 |
| 20260505121514 | 70 | 188 | 11.0 | 21.0 | 0.00 | 0.00 | 0.00 | 78 | 1004.6 |
| 20260505120015 | 70 | 207 | 10.0 | 20.0 | 0.00 | 0.00 | 0.00 | 78 | 1004.7 |
| 20260505114512 | 70 | 186 | 11.0 | 23.0 | 0.00 | 0.00 | 0.00 | 77 | 1004.6 |
| 20260505113020 | 70 | 184 | 13.0 | 21.0 | 0.00 | 0.00 | 0.00 | 78 | 1004.6 |
| 20260505111514 | 70 | 189 | 11.0 | 20.0 | 0.00 | 0.00 | 0.00 | 77 | 1004.6 |
| 20260505101518 | 69 | 195 | 11.0 | 17.0 | 0.00 | 0.00 | 0.00 | 78 | 1004.8 |
| 20260505100021 | 69 | 215 | 10.0 | 17.0 | 0.00 | 0.00 | 0.00 | 78 | 1004.7 |
| 20260505094519 | 69 | 186 | 11.0 | 20.0 | 0.00 | 0.00 | 0.00 | 78 | 1004.9 |
| 20260505093026 | 70 | 177 | 9.0 | 18.0 | 0.00 | 0.00 | 0.00 | 78 | 1005.1 |
| 20260505091514 | 70 | 178 | 11.0 | 19.0 | 0.00 | 0.00 | 0.00 | 78 | 1005.1 |
| 20260505090020 | 70 | 184 | 9.0 | 20.0 | 0.00 | 0.00 | 0.00 | 78 | 1005.0 |
| 20260505084521 | 70 | 169 | 10.0 | 22.0 | 0.00 | 0.00 | 0.00 | 78 | 1005.1 |
| 20260505083024 | 69 | 175 | 10.0 | 24.0 | 0.00 | 0.00 | 0.00 | 78 | 1005.0 |
| 20260505081531 | 69 | 168 | 8.0 | 19.0 | 0.00 | 0.00 | 0.00 | 78 | 1005.2 |
| 20260505080032 | 69 | 190 | 11.0 | 22.0 | 0.00 | 0.00 | 0.00 | 78 | 1005.3 |
| 20260505074522 | 69 | 207 | 10.0 | 22.0 | 0.00 | 0.00 | 0.00 | 78 | 1005.5 |
| 20260505073006 | 69 | 183 | 13.0 | 19.0 | 0.00 | 0.00 | 0.00 | 78 | 1005.8 |
| 20260505071508 | 69 | 172 | 10.0 | 21.0 | 0.00 | 0.00 | 0.00 | 78 | 1006.1 |
| 20260505070014 | 70 | 213 | 12.0 | 20.0 | 0.00 | 0.00 | 0.00 | 78 | 1006.2 |
| 20260505064523 | 70 | 178 | 12.0 | 24.0 | 0.00 | 0.00 | 0.00 | 78 | 1006.7 |
| 20260505063026 | 70 | 181 | 12.0 | 21.0 | 0.00 | 0.00 | 0.00 | 78 | 1006.7 |
| 20260505061506 | 70 | 200 | 9.0 | 20.0 | 0.00 | 0.00 | 0.00 | 78 | 1006.7 |
| 20260505060012 | 71 | 182 | 11.0 | 20.0 | 0.00 | 0.00 | 0.00 | 78 | 1006.6 |
| 20260505054518 | 71 | 204 | 9.0 | 18.0 | 0.00 | 0.00 | 0.00 | 78 | 1006.6 |
| 20260505053022 | 71 | 179 | 8.0 | 20.0 | 0.00 | 0.00 | 0.00 | 77 | 1006.9 |
| 20260505051524 | 71 | 193 | 10.0 | 17.0 | 0.00 | 0.00 | 0.00 | 77 | 1007.0 |